User: anonymous   Login
Location: Unspecified
(0.0000°N, 0.0000°E)
Time: 04:33:26
(UTC+00:00)
Language:

STARLINK-36755 - Orbit

View from above orbital plane
View from above orbital plane
View from above satellite
View from above satellite

Ground track
Ground track

The orbit is defined by the following mean orbital elements,

1 67726U          26145.42572809 +.00000000 +00000-0 +51977-3 0 00008
2 67726  97.2856 198.9092 0000645 211.0006 149.1198 15.33459434    04
Epoch (UTC): 25 May 2026 10:13:02
Eccentricity: 0.0000645
inclination: 97.2856°
perigee height: 465 km
apogee height: 466 km
right ascension of ascending node: 198.9092°
argument of perigee: 211.0006°
revolutions per day: 15.33459434
mean anomaly at epoch: 149.1198°

The dashed part of the orbit path shows where the satellite is in the earth's shadow,  

DLR